Regional Weather Roundup
Issued by NWS

Home | Current Version | Previous Version | Text Only | Print | Product List | Glossary Off
Versions: 1 2 3 4 5 6 7 8 9 10 11 12 13 14 15 16 17 18 19 20 21 22 23 24 25 26 27 28 29 30 31 32 33 34 35 36 37 38 39 40 41 42 43 44 45 46 47 48 49 50

000
ASUS43 KMPX 130310
RWRMN
WEATHER ROUNDUP FOR MINNESOTA
NATIONAL WEATHER SERVICE TWIN CITIES/CHANHASSEN MN
1000 PM CDT SAT JUL 12 2014


NOTE: "FAIR" INDICATES FEW OR NO CLOUDS BELOW 12,000 FEET WITH NO
SIGNIFICANT WEATHER AND/OR OBSTRUCTIONS TO VISIBILITY. N/A MEANS
CURRENT SKY AND/OR WEATHER CONDITIONS ARE NOT AVAILABLE.

MNZ060>063-068>070-130400-
   Twin Cities Metro

CITY           SKY/WX    TMP DP  RH WIND       PRES   REMARKS
TWIN CITIES    PTCLDY    71  65  81 W6        29.95R
ST PAUL        CLEAR     70  64  81 W3        29.95R
CRYSTAL        CLEAR     71  62  73 W5        29.93R
BLAINE         PTCLDY    70  63  78 CALM      29.95R
LAKEVILLE      CLEAR     66  64  94 CALM      29.96R
EDEN PRAIRIE   CLEAR     70  65  84 W3        29.95R
SOUTH ST PAUL  CLEAR     69  65  85 W3        29.95R
LAKE ELMO      MOCLDY    68  66  94 CALM      29.96R
$$
MNZ001>005-007-008-013>017-022>024-027-028-130400-
   Northwest Minnesota

CITY           SKY/WX    TMP DP  RH WIND       PRES   REMARKS
BEMIDJI        RAIN      58  55  88 W9G17     29.93S
HALLOCK        PTCLDY    61  57  88 CALM      29.93S
ROSEAU         PTCLDY    57  52  82 NW8       29.92R
WARROAD        PTCLDY    55  52  88 NW8       29.92R
THIEF RVR FALL CLOUDY    59  55  88 NW10      29.94R
CROOKSTON      CLOUDY    59  57  94 N7        29.94F
FOSSTON        DRIZZLE   57  54  88 NW8       29.95S
DETROIT LAKES  CLEAR     64  52  63 N9G21     29.97R
MOORHEAD       PTCLDY    66  57  72 N14       29.96R
PARK RAPIDS    PTCLDY    65  51  60 N21G35    29.94R
$$
MNZ006-009>011-018-025>026-130400-
   North Central Minnesota

CITY           SKY/WX    TMP DP  RH WIND       PRES   REMARKS
BAUDETTE       MOCLDY    57  52  83 NW7       29.90R
FLAG ISLAND    CLEAR     57  50  77 NW18      29.88S
INTL FALLS     CLOUDY    57  53  86 W6        29.86R
WASKISH        CLOUDY    59  55  88 NW12      29.90R
BIG FORK       MOCLDY    57  55  94 CALM      29.90S
LONGVILLE      PTCLDY    66  57  72 N10G23    29.92R
GRAND RAPIDS   MOCLDY    64  54  68 NW24G39   29.92R
CRANE LAKE     LGT RAIN  55  54  94 S3        29.86S
ORR            CLOUDY    57  52  82 CALM      29.86R
COOK           RAIN      61  52  72 NW7G16    29.89R
$$
MNZ012-019>021-037-130400-
   Northeast Minnesota

CITY           SKY/WX    TMP DP  RH WIND       PRES   REMARKS
DULUTH         PTCLDY    64  58  80 W8        29.86S
ELY            MOCLDY    64  52  63 NW14G26   29.86R
HIBBING        PTCLDY    63  54  72 MISG      29.88R
EVELETH        PTCLDY    63  52  67 W8        29.87R
DULUTH HARBOR  CLEAR     70  63  78 SW12      29.85R
TWO HARBORS    PTCLDY    63  57  82 W5        29.83R
SILVER BAY     CLEAR     61  61 100 CALM      29.82R
GRAND MARAIS     N/A     46  45  96 W5        29.79F
G MARAIS ARPRT CLEAR     59  54  82 S5        29.83S
$$
MNZ029>031-032-039>041-046>048-054>057-064-130400-
   West Central Minnesota

CITY           SKY/WX    TMP DP  RH WIND       PRES   REMARKS
FERGUS FALLS   CLEAR     68  57  68 W5        29.92R
WHEATON        CLEAR     68  63  83 SW5       29.96R
MORRIS         CLEAR     68  63  83 W7        29.94S
ALEXANDRIA     CLEAR     67  61  81 SW6       29.95S
ELBOW LAKE     FAIR      68  61  77 W6        29.93S
WADENA         CLEAR     66  61  82 SW5       29.92R
GLENWOOD       CLEAR     64  61  88 SW7       29.96R
APPLETON       CLEAR     70  63  78 SW6       29.95S
BENSON         CLEAR     66  63  88 W6        29.95S
ORTONVILLE     PTCLDY    72  61  68 W3        29.96S
MADISON        CLEAR     72  64  78 W5        29.97R
WILLMAR        FAIR      70  63  78 SW6       29.97S
$$
MNZ033>034-036-042>043-049>051-058-059-130400-
   Central Minnesota

CITY           SKY/WX    TMP DP  RH WIND       PRES   REMARKS
ST CLOUD       PTCLDY    66  61  84 S3        29.93S
SAUK CENTRE    FAIR      64  61  88 CALM      29.94S
PAYNESVILLE    RAIN      63  61  92 CALM      29.95S
AITKIN         CLEAR     64  57  77 CALM      29.89R
PINE RIVER     CLEAR     66  61  82 SW3       29.93R
BRAINERD       CLEAR     70  60  70 SW5       29.91S
STAPLES        CLEAR     64  59  82 SW5       29.92R
LONG PRAIRIE   FAIR      63  61  94 S3        29.94S
LITTLE FALLS   CLEAR     63  59  88 CALM      29.92S
LITCHFIELD     PTCLDY    68  64  88 CALM      29.96S
BUFFALO        CLEAR     69  61  75 CALM      29.96S
MAPLE LAKE     CLEAR     68  63  85 CALM      29.95S
$$
MNZ037-044-045-052-053-130400-
   East Central Minnesota

CITY           SKY/WX    TMP DP  RH WIND       PRES   REMARKS
PRINCETON      CLEAR     68  63  83 SW3       29.93S
MORA           CLEAR     64  59  82 SW3       29.93S
CAMBRIDGE      CLEAR     70  57  64 CALM      29.92S
RUSH CITY      PTCLDY    66  61  84 SW3       29.92S
MOOSE LAKE     PTCLDY    61  59  94 SW3       29.87S
HINCKLEY       FAIR      64  61  88 SW3       29.91S
CLOQUET        CLEAR     64  57  77 SW5       29.87S
MCGREGOR       CLEAR     64  59  82 SW3       29.89S
$$
MNZ071>073-080-081-089-090-097-098-130400-
   Southwest Minnesota

CITY           SKY/WX    TMP DP  RH WIND       PRES   REMARKS
MONTEVIDEO     CLEAR     72  64  78 W3        29.97S
GRANITE FALLS  CLEAR     68  65  90 SW5       29.99R
CANBY          CLEAR     69  65  88 SW5       29.99S
MARSHALL       CLEAR     70  64  83 W7        29.98R
REDWOOD FALLS  CLEAR     70  65  84 W3        29.97R
OLIVIA         CLEAR     68  64  88 SW3       29.97R
PIPESTONE      CLEAR     72  64  78 NW3       30.03S
WINDOM         PTCLDY    70  64  83 CALM      30.01R
WORTHINGTON    PTCLDY    70  66  88 CALM      30.04R
JACKSON        PTCLDY    68  63  83 NW3       30.02R
TRACY          PTCLDY    69  66  91 SW5       30.00S
SLAYTON        PTCLDY    69  65  87 CALM      30.03R
$$
MNZ065>067-074>077-082>085-091>093-130400-
   South Central Minnesota

CITY           SKY/WX    TMP DP  RH WIND       PRES   REMARKS
MANKATO        CLEAR     70  64  83 W6        29.98R
NEW ULM        CLEAR     68  68 100 W3        29.98R
ST JAMES       CLEAR     68  64  88 CALM      30.00R
FAIRMONT       CLEAR     68  63  83 N3        30.00R
GLENCOE        CLEAR     70  64  79 W3        29.96R
FARIBAULT      CLEAR     70  63  78 SW3       29.97R
OWATONNA       CLEAR     66  64  94 SW5       29.98R
WASECA         CLEAR     66  61  82 SW5       30.00R
ALBERT LEA     CLEAR     68  64  88 CALM      29.99R
$$
MNZ078>079-086>088-094>096-130400-
   Southeast Minnesota

CITY           SKY/WX    TMP DP  RH WIND       PRES   REMARKS
ROCHESTER      CLEAR     66  64  93 NW7       29.99R
RED WING       MOCLDY    66  64  94 CALM      29.93R
STANTON        CLEAR     67  64  90 SW3       29.94R
DODGE CENTER   CLEAR     66  64  94 W5        29.98R
WINONA         PTCLDY    66  64  94 CALM      29.95R
AUSTIN         CLEAR     66  64  94 NW5       29.99R
PRESTON        MOCLDY    67  66  97 CALM      29.99R
$$
ABBREVIATIONS USED IN REMARKS
   TC - TEMPERATURES IN CELSIUS
  WCI - WIND CHILL INDEX
   HX - HEAT INDEX
  VSB - VISIBILITY
$$



USA.gov is the U.S. government's official web portal to all federal, state and local government web resources and services.